Regional Weather Roundup
Issued by NWS Jackson, KY

Home | Current Version | Previous Version | Graphics & Text | Print | Product List | Glossary On
Versions: 1 2 3 4 5 6 7 8 9 10 11 12 13 14 15 16 17 18 19 20 21 22 23 24 25 26 27 28 29 30 31 32 33 34 35 36 37 38 39 40 41 42 43 44 45 46 47 48 49 50
000
ASUS43 KJKL 240610
RWRJKL

EAST KENTUCKY HOURLY WEATHER ROUNDUP
NATIONAL WEATHER SERVICE JACKSON KY
200 AM EDT THU JUL 24 2014

NOTE: "FAIR" INDICATES FEW OR NO CLOUDS BELOW 12,000 FEET WITH
NO SIGNIFICANT WEATHER AND/OR OBSTRUCTIONS TO VISIBILITY.

* THESE REPORTS ARE NOT UNDER NWS QUALITY CONTROL AND MAY NOT
  REPORT WEATHER SUCH AS PRECIPITATION AND FOG.

KYZ079-080-083-085-087-088-110-112-115-119-120-240700
...EASTERN KENTUCKY...

CITY           SKY/WX    TMP DP  RH WIND       PRES   REMARKS
JACKSON        CLOUDY    68  66  93 CALM      29.99F FOG
6HR MIN TEMP:  67; 6HR MAX TEMP:  71; 6HR PCP:  0.49;

LONDON         MOCLDY    70  68  93 CALM      30.00F
6HR MIN TEMP:  70; 6HR MAX TEMP:  79; 6HR PCP:  0.14;

SOMERSET*      CLOUDY    68  68 100 CALM      30.00F FOG
MONTICELLO*    PTCLDY    69  69 100 SW5       30.00F FOG
6HR MIN TEMP:  69; 6HR MAX TEMP:  76; 6HR PCP:  0.30;

WILLIAMSBURG*    N/A     68  68 100 CALM      30.00F
MIDDLESBORO*   CLOUDY    69  69  98 CALM      30.01F
HARLAN APT*    CLOUDY    68  68 100 MISG      30.03F
HAZARD APT*    CLOUDY    68  68 100 CALM      29.99  FOG
BLACK MTN*       N/A     63  63 100 NE5         N/A
PIKEVILLE APT* FOG       68  68 100 S5        29.99F VSB 1/2
BIG SANDY*     CLOUDY    69  69  99 S3        29.98F
6HR MIN TEMP:  69; 6HR MAX TEMP:  76;

MOREHEAD APT*  CLOUDY    70  70 100 S3        30.00F FOG
$$

KYZ035-036-041-042-044-050-067-078-099-240700
...CENTRAL KENTUCKY...

CITY           SKY/WX    TMP DP  RH WIND       PRES   REMARKS
MT STERLING*   PTCLDY    68  68 100 CALM      30.00F FOG
FLEMING/MASON* MOCLDY    72  68  88 NE5       29.99S
DANVILLE*      MOCLDY    68  68 100 CALM      30.00F
RICHMOND*      PTCLDY    70  66  88 CALM      29.98F
LEXINGTON      PTCLDY    70  67  90 SW5       29.98F
6HR MIN TEMP:  70; 6HR MAX TEMP:  83;

FRANKFORT      CLOUDY    71  68  90 NW10      29.97F
6HR MIN TEMP:  71; 6HR MAX TEMP:  83;

$$

KYZ091>093-OHZ055-061-077-WVZ005-015-034-035-042-240700
...SOUTHERN OHIO/WEST VIRGINIA...

CITY           SKY/WX    TMP DP  RH WIND       PRES   REMARKS
COVINGTON      CLOUDY    68  65  90 NE13      30.01S
COLUMBUS       MOCLDY    63  55  75 NE6       30.03S
DAYTON         PTCLDY    62  58  86 E5        30.05S
WILMINGTON     CLOUDY    64  55  72 NE9       30.03S
HUNTINGTON     CLOUDY    73  66  78 N6        29.96F
CHARLESTON     CLOUDY    71  71 100 CALM      29.96F FOG
PINEVILLE*     RAIN      72  72 100 MISG      30.08S
BECKLEY        RAIN      67  66  97 S6        30.04F FOG
BLUEFIELD      CLOUDY    71  65  81 CALM      30.07F
$$

VAZ002-007-008-TNZ017-027-036-066-071-240700
...SOUTHWEST VIRGINIA/EAST TENNESSEE...

CITY           SKY/WX    TMP DP  RH WIND       PRES   REMARKS
WISE*          LGT RAIN  66  66 100 CALM      30.09F
JONESVILLE*    FOG       68  68 100 CALM      30.03F VSB 1/4
ABINGDON*      MOCLDY    70  69  98 CALM      30.05F FOG
BRISTOL        CLOUDY    70  67  90 N5        30.02F
KNOXVILLE      CLOUDY    73  70  90 SE5       29.97F
OAK RIDGE      CLOUDY    72  70  93 CALM      29.99F
CROSSVILLE     CLOUDY    71  68  90 W5        30.03F
NASHVILLE      PTCLDY    75  69  81 NW3       29.99F
$$

...KEY TO REMARKS...
VSB - VISIBILITY IN MILES
WCI - WIND CHILL INDEX
HX  - HEAT INDEX

$$


USA.gov is the U.S. government's official web portal to all federal, state and local government web resources and services.